| time (UTC) | temp F | wind direction | speed knots | gust knots | rain 1hr in | rain 24hr in | rain mn in | humidity % | barometer mb |
| 20260507124903 | 58 | 298 | 1.7 | 2.6 | 0.00 | 0.00 | 0.00 | 58 | 1014.2 |
| 20260507114903 | 59 | 30 | 1.7 | 1.7 | 0.00 | 0.00 | 0.00 | 52 | 1013.9 |
| 20260507104903 | 57 | 152 | 5.2 | 4.3 | 0.00 | 0.00 | 0.00 | 57 | 1014.3 |
| 20260507084903 | 52 | 91 | 2.6 | 1.7 | 0.00 | 0.00 | 0.00 | 72 | 1014.5 |
| 20260507074903 | 52 | 50 | 0.0 | 0.0 | 0.00 | 0.00 | 0.00 | 77 | 1014.2 |
| 20260507064904 | 51 | 34 | 0.9 | 0.9 | 0.00 | 0.00 | 0.00 | 81 | 1013.9 |
| 20260507054903 | 48 | 152 | 1.7 | 1.7 | 0.00 | 0.00 | 0.00 | 93 | 1013.5 |
| 20260507044903 | 46 | 147 | 1.7 | 1.7 | 0.00 | 0.00 | 0.00 | 95 | 1013.1 |
| 20260507034903 | 46 | 165 | 0.9 | 0.9 | 0.00 | 0.00 | 0.00 | 96 | 1012.7 |
| 20260507024904 | 47 | 161 | 0.9 | 0.0 | 0.04 | 0.00 | 0.00 | 95 | 1012.5 |
| 20260507014903 | 47 | 127 | 3.5 | 5.2 | 0.00 | 0.00 | 0.00 | 96 | 1012.1 |
| 20260506234903 | 47 | 135 | 1.7 | 1.7 | 0.00 | 0.00 | 0.00 | 94 | 1012.0 |
| 20260506224903 | 47 | 218 | 0.9 | 0.9 | 0.00 | 0.00 | 0.00 | 94 | 1011.9 |
| 20260506214903 | 48 | 150 | 1.7 | 1.7 | 0.00 | 0.00 | 0.00 | 94 | 1011.7 |
| 20260506204903 | 47 | 211 | 0.0 | 0.0 | 0.00 | 0.00 | 0.00 | 95 | 1011.6 |
| 20260506194903 | 46 | 180 | 0.9 | 0.9 | 0.00 | 0.00 | 0.00 | 95 | 1011.1 |
| 20260506184903 | 46 | 0 | 0.0 | 0.0 | 0.00 | 0.00 | 0.00 | 92 | 1010.5 |
| 20260506174903 | 48 | 250 | 0.9 | 2.6 | 0.00 | 0.00 | 0.00 | 90 | 1010.0 |
| 20260506164903 | 47 | 134 | 3.5 | 4.3 | 0.07 | 0.00 | 0.00 | 87 | 1010.0 |
| 20260506154903 | 51 | 216 | 0.9 | 0.9 | 0.02 | 0.00 | 0.00 | 74 | 1009.2 |
| 20260506144903 | 59 | 313 | 1.7 | 3.5 | 0.00 | 0.00 | 0.00 | 62 | 1007.1 |